EW1343 Weather Reports


time (UTC)temp
C
wind
direction
speed
KPH
gust
KPH
rain 1hr
cm
rain 24hr
cm
rain mn
cm
humidity
%
barometer
mb
20260507134516 -17 257 3.2 11.3 0.00 0.00 0.00 1017.9
20260507133011 -17 216 6.4 17.7 0.00 0.00 0.00 1017.9
20260507131510 -17 240 8.0 16.1 0.00 0.00 0.00 1017.8
20260507130002 -17 228 0.0 16.1 0.00 0.00 0.00 1017.7
20260507124558 -17 255 1.6 14.5 0.00 0.00 0.00 1017.7
20260507123054 -17 225 8.0 16.1 0.00 0.00 0.00 1017.7
20260507121559 -17 267 3.2 19.3 0.00 0.00 0.00 1017.7
20260507120046 -17 227 4.8 16.1 0.00 0.00 0.00 1017.6
20260507114548 -17 278 1.6 19.3 0.00 0.00 0.00 1017.6
20260507113037 -17 253 0.0 8.0 0.00 0.00 0.00 1017.7
20260507111531 -17 246 1.6 12.9 0.00 0.00 0.00 1017.6
20260507110027 -17 239 3.2 11.3 0.00 0.00 0.00 1017.7
20260507104523 -17 360 0.0 8.0 0.00 0.00 0.00 1017.7
20260507103018 -17 250 1.6 12.9 0.00 0.00 0.00 1017.7
20260507101514 -17 263 0.0 8.0 0.00 0.00 0.00 1017.6
20260507100010 -17 360 1.6 11.3 0.00 0.00 0.00 1017.6
20260507094504 -17 264 0.0 8.0 0.00 0.00 0.00 1017.6
20260507093001 -17 327 0.0 4.8 0.00 0.00 0.00 1017.6
20260507091559 -17 360 1.6 6.4 0.00 0.00 0.00 1017.6
20260507090056 -17 231 1.6 9.7 0.00 0.00 0.00 1017.5
20260507084547 -17 250 0.0 9.7 0.00 0.00 0.00 1017.6
20260507083044 -17 292 0.0 8.0 0.00 0.00 0.00 1017.4
20260507081547 -17 249 0.0 8.0 0.00 0.00 0.00 1017.5
20260507080036 -17 238 3.2 11.3 0.00 0.00 0.00 1017.3
20260507074549 -17 173 0.0 6.4 0.00 0.00 0.00 1017.3
20260507073027 -17 49 0.0 9.7 0.00 0.00 0.00 1017.3
20260507071521 -17 150 0.0 9.7 0.00 0.00 0.00 1017.4
20260507070021 -17 172 0.0 6.4 0.00 0.00 0.00 1017.3
20260507064512 -17 360 1.6 6.4 0.00 0.00 0.00 1017.3
20260507063016 -17 360 0.0 0.0 0.00 0.00 0.00 1017.3
20260507061504 -17 360 0.0 0.0 0.00 0.00 0.00 1017.1
20260507054637 -17 186 0.0 0.0 0.00 0.00 0.00 1017.2
20260507053053 -17 186 0.0 0.0 0.00 0.00 0.00 1017.1
20260507051546 -17 186 0.0 0.0 0.00 0.00 0.00 1017.0
20260507050042 -17 186 0.0 0.0 0.00 0.00 0.00 1016.9
20260507044544 -17 186 0.0 0.0 0.00 0.00 0.00 1016.8
20260507043033 -17 186 0.0 0.0 0.00 0.00 0.00 1016.8
20260507041528 -17 186 0.0 0.0 0.00 0.00 0.00 1016.7
20260507040023 -17 186 0.0 0.0 0.00 0.00 0.00 1016.7
20260507034519 -17 186 0.0 0.0 0.00 0.00 0.00 1016.5
20260507033020 -17 186 0.0 0.0 0.00 0.00 0.00 1016.5
20260507031511 -17 186 0.0 0.0 0.00 0.00 0.00 1016.5
20260507030006 -17 186 0.0 0.0 0.00 0.00 0.00 1016.5
20260507024501 -17 186 0.0 0.0 0.00 0.00 0.00 1016.4
20260507023105 -17 186 0.0 0.0 0.00 0.00 0.00 1016.3
20260507021552 -17 186 0.0 0.0 0.00 0.00 0.00 1016.2
20260507020049 -17 186 0.0 0.0 0.00 0.00 0.00 1016.3
20260507014551 -17 186 0.0 0.0 0.00 0.00 0.00 1016.2
20260507013039 -17 186 0.0 0.0 0.00 0.00 0.00 1016.1
20260507011535 -17 186 0.0 0.0 0.00 0.00 0.00 1016.1
20260507010033 -17 186 0.0 0.0 0.00 0.00 0.00 1016.1
20260507004525 -17 186 0.0 0.0 0.00 0.00 0.00 1016.3
20260507003022 -17 186 0.0 0.0 0.00 0.00 0.00 1016.1
20260507001524 -17 229 0.0 4.8 0.00 0.00 0.00 1016.0
20260507000016 -17 184 0.0 0.0 0.00 0.00 0.00 1016.0
20260506234509 -17 179 0.0 0.0 0.00 0.00 0.00 1016.0
20260506233004 -17 217 0.0 0.0 0.00 0.00 0.00 1016.0
20260506231559 -17 217 0.0 1.6 0.00 0.00 0.00 1016.0
20260506230056 -17 217 0.0 1.6 0.00 0.00 0.00 1016.0
20260506224551 -17 227 0.0 0.0 0.00 0.00 0.00 1015.9
20260506223047 -17 227 0.0 0.0 0.00 0.00 0.00 1015.9
20260506221541 -17 184 0.0 0.0 0.00 0.00 0.00 1015.8
20260506220037 -17 184 0.0 0.0 0.00 0.00 0.00 1015.7
20260506214533 -17 184 0.0 0.0 0.00 0.00 0.00 1015.7
20260506213030 -17 205 0.0 3.2 0.00 0.00 0.00 1015.7
20260506211524 -17 202 0.0 3.2 0.00 0.00 0.00 1015.6
20260506210020 -17 200 0.0 6.4 0.00 0.00 0.00 1015.6
20260506204520 -17 237 1.6 6.4 0.00 0.00 0.00 1015.6
20260506203011 -17 226 1.6 4.8 0.00 0.00 0.00 1015.6
20260506201506 -17 213 1.6 8.0 0.00 0.00 0.00 1015.6
20260506200003 -17 223 1.6 9.7 0.00 0.00 0.00 1015.6
20260506194628 -17 234 1.6 12.9 0.00 0.00 0.00 1015.5
20260506193103 -17 239 0.0 17.7 0.00 0.00 0.00 1015.5
20260506191548 -17 232 1.6 9.7 0.00 0.00 0.00 1015.3
20260506190044 -17 236 0.0 9.7 0.00 0.00 0.00 1015.3
20260506184540 -17 278 0.0 12.9 0.00 0.00 0.00 1015.1
20260506183036 -17 242 1.6 8.0 0.00 0.00 0.00 1015.2
20260506181531 -17 217 3.2 16.1 0.00 0.00 0.00 1015.2
20260506180027 -17 215 3.2 14.5 0.00 0.00 0.00 1015.1
20260506174522 -17 159 3.2 17.7 0.00 0.00 0.00 1015.0
20260506173016 -17 246 4.8 11.3 0.00 0.00 0.00 1014.9
20260506171513 -17 227 3.2 11.3 0.00 0.00 0.00 1015.0
20260506170008 -17 171 1.6 11.3 0.00 0.00 0.00 1014.9
20260506164505 -17 226 3.2 12.9 0.00 0.00 0.00 1014.9
20260506163121 -17 212 3.2 17.7 0.00 0.00 0.00 1014.9
20260506161602 -17 229 0.0 14.5 0.00 0.00 0.00 1014.8
20260506160051 -17 227 1.6 12.9 0.00 0.00 0.00 1014.8
20260506154606 -17 220 4.8 14.5 0.00 0.00 0.00 1014.8
20260506153050 -17 202 4.8 17.7 0.00 0.00 0.00 1014.8
20260506151538 -17 244 8.0 19.3 0.00 0.00 0.00 1014.8
20260506150034 -17 228 1.6 16.1 0.00 0.00 0.00 1014.9
20260506144529 -17 254 4.8 14.5 0.00 0.00 0.00 1015.0
20260506143030 -17 292 6.4 19.3 0.00 0.00 0.00 1015.0
20260506141520 -17 228 6.4 12.9 0.00 0.00 0.00 1015.0
20260506140016 -17 290 4.8 16.1 0.00 0.00 0.00 1015.0